Orbital Elements at Epoch 2459200.5 (2020-Dec-17.0) TDB
Reference: JPL 16 (heliocentric ecliptic J2000)
Element | Value | Uncertainty (1-sigma) | Units |
e | .02838956585045436 | 6.0307e-08 | |
a | 2.424638448971886 | 1.6137e-08 | au |
q | 2.355804016061255 | 1.4881e-07 | au |
i | 5.495992216854695 | 3.9097e-06 | deg |
node | 241.2179343130337 | 5.6492e-05 | deg |
peri | 308.46953644918 | 9.9443e-05 | deg |
M | 52.94930536761628 | 7.9165e-05 | deg |
tp | 2458997.672576080133 (2020-May-28.17257608) | 0.00030388 | TDB |
period | 1379.014740688358 3.78 | 1.3767e-05 3.769e-08 | d yr |
n | .2610559476835613 | 2.6061e-09 | deg/d |
Q | 2.493472881882516 | 1.6595e-08 | au |
|
| | Orbit Determination Parameters
Additional Information
|